Date String (YYYY-MM-DD hh:mm:ss) UTC,Instrument flags,Ambient pressure (hPa),Sample flow (lpm),Bypass flow (lpm),Sample temperature (°C),Ambient temperature (°C),ASC tube jacket temperature (°C),LED temperature (°C),Box temperature (°C),Sample RH (%),Span deviation,Mass concentration (μg/m³),Mass concentration (μg/m³),Mass concentration (μg/m³)
DateTimeUTC,F1_M11,P_M11,Q1_M11,Q2_M11,T1_M11,T2_M11,T3_M11,T4_M11,T5_M11,U1_M11,ZSPAN_M11,X0_M11,X2_M11,X1_M11
2022-09-15 15:00:00,,0827.0,5.01,0.00,30.4,28.5,00.0,39.2,32.1,27.3,0000.0,0004.20,0002.44,0001.98
2022-09-15 15:01:00,,0827.0,4.99,0.00,30.4,28.6,00.0,39.2,32.1,27.6,0000.0,0004.29,0002.44,0001.97
2022-09-15 15:02:00,,0827.0,5.00,0.00,30.4,28.8,00.0,39.2,32.2,27.8,0000.0,0004.29,0002.44,0001.96
2022-09-15 15:03:00,,0827.0,4.99,0.00,30.4,28.9,00.0,39.2,32.2,27.0,0000.0,0004.16,0002.38,0001.93
2022-09-15 15:04:00,,0827.0,5.01,0.00,30.4,28.9,00.0,39.2,32.2,27.1,0000.0,0003.86,0002.37,0001.92
2022-09-15 15:05:00,,0827.2,4.99,0.00,30.4,29.0,00.0,39.2,32.2,27.5,0000.0,0003.86,0002.35,0001.89
2022-09-15 15:06:00,,0827.2,5.01,0.00,30.5,29.1,00.0,39.2,32.3,27.2,0000.0,0003.78,0002.28,0001.86
2022-09-15 15:07:00,,0827.0,4.99,0.00,30.5,29.1,00.0,39.2,32.3,27.1,0000.0,0003.75,0002.27,0001.86
2022-09-15 15:08:00,,0827.1,5.01,0.00,30.5,29.2,00.0,39.2,32.3,27.0,0000.0,0003.73,0002.30,0001.85
2022-09-15 15:09:00,,0826.9,5.00,0.00,30.5,29.2,00.0,39.2,32.4,27.1,0000.0,0003.78,0002.31,0001.84
2022-09-15 15:10:00,,0826.9,5.01,0.00,30.5,29.3,00.0,39.2,32.4,27.1,0000.0,0003.69,0002.27,0001.82
2022-09-15 15:11:00,,0826.9,4.99,0.00,30.6,29.3,00.0,39.2,32.4,26.9,0000.0,0003.70,0002.19,0001.81
2022-09-15 15:12:00,,0827.0,5.00,0.00,30.6,29.3,00.0,39.2,32.4,26.9,0000.0,0004.00,0002.19,0001.81
2022-09-15 15:13:00,,0827.0,5.00,0.00,30.6,29.4,00.0,39.3,32.5,27.0,0000.0,0004.12,0002.20,0001.82
2022-09-15 15:14:00,,0827.3,4.99,0.00,30.6,29.4,00.0,39.3,32.5,26.6,0000.0,0004.25,0002.26,0001.84
2022-09-15 15:15:00,,0827.3,5.00,0.00,30.7,29.2,00.0,39.3,32.5,26.8,0000.0,0004.34,0002.29,0001.85
2022-09-15 15:16:00,,0827.1,5.00,0.00,30.7,28.0,00.0,39.3,32.5,26.8,0000.0,0004.49,0002.33,0001.86
2022-09-15 15:17:00,,0827.1,5.01,0.00,30.6,27.2,00.0,39.2,32.4,26.8,0000.0,0004.64,0002.40,0001.88
2022-09-15 15:18:00,,0827.1,5.00,0.00,30.6,27.2,00.0,39.2,32.3,26.9,0000.0,0004.56,0002.41,0001.89
2022-09-15 15:19:00,,0827.2,5.00,0.00,30.5,27.4,00.0,39.2,32.1,27.1,0000.0,0004.69,0002.36,0001.89
2022-09-15 15:20:00,,0827.1,4.99,0.00,30.4,27.8,00.0,39.1,32.1,27.8,0000.0,0005.99,0002.36,0001.88
2022-09-15 15:21:00,,0827.2,5.00,0.00,30.4,28.1,00.0,39.1,32.1,27.8,0000.0,0006.18,0002.43,0001.88
2022-09-15 15:22:00,,0827.2,5.00,0.00,30.4,28.3,00.0,39.1,32.1,27.7,0000.0,0005.87,0002.43,0001.88
2022-09-15 15:23:00,,0827.2,5.00,0.00,30.4,28.5,00.0,39.1,32.1,27.6,0000.0,0005.54,0002.42,0001.88
2022-09-15 15:24:00,,0827.2,5.01,0.00,30.4,28.6,00.0,39.1,32.1,27.5,0000.0,0006.38,0002.42,0001.86
2022-09-15 15:25:00,,0827.2,4.99,0.00,30.4,28.8,00.0,39.1,32.2,27.3,0000.0,0006.55,0002.42,0001.85
2022-09-15 15:26:00,,0827.2,5.00,0.00,30.4,28.9,00.0,39.1,32.2,27.2,0000.0,0007.06,0002.47,0001.85
2022-09-15 15:27:00,,0827.2,5.00,0.00,30.4,29.0,00.0,39.1,32.2,27.4,0000.0,0006.97,0002.48,0001.85
2022-09-15 15:28:00,,0827.1,5.00,0.00,30.4,29.0,00.0,39.1,32.2,27.3,0000.0,0006.96,0002.48,0001.86
2022-09-15 15:29:00,,0827.1,5.01,0.00,30.4,29.1,00.0,39.1,32.3,27.2,0000.0,0006.93,0002.46,0001.87
2022-09-15 15:30:00,,0827.1,4.99,0.00,30.4,29.2,00.0,39.1,32.3,27.2,0000.0,0006.97,0002.50,0001.88
2022-09-15 15:31:00,,0827.1,5.01,0.00,30.5,29.2,00.0,39.1,32.3,27.2,0000.0,0005.41,0002.52,0001.91
2022-09-15 15:32:00,,0827.1,4.99,0.00,30.5,29.3,00.0,39.2,32.4,27.2,0000.0,0005.25,0002.47,0001.92
2022-09-15 15:33:00,,0827.1,5.01,0.00,30.5,28.6,00.0,39.2,32.4,27.2,0000.0,0005.41,0002.53,0001.94
2022-09-15 15:34:00,,0827.1,5.00,0.00,30.5,27.3,00.0,39.1,32.2,27.3,0000.0,0005.51,0002.57,0001.96
2022-09-15 15:35:00,,0827.1,4.99,0.00,30.4,26.6,00.0,39.1,32.1,27.3,0000.0,0004.53,0002.57,0001.99
2022-09-15 15:36:00,,0827.1,4.95,0.00,30.4,26.7,00.0,39.0,32.0,27.3,0000.0,0004.55,0002.59,0002.00
2022-09-15 15:37:00,,0827.1,5.01,0.00,30.2,27.1,00.0,39.0,31.7,28.1,0000.0,0004.34,0002.58,0002.00
2022-09-15 15:38:00,,0827.2,5.00,0.00,30.2,27.4,00.0,39.0,31.8,27.7,0000.0,0003.79,0002.50,0001.99
2022-09-15 15:39:00,,0827.2,5.01,0.00,30.1,27.7,00.0,38.9,31.8,27.8,0000.0,0003.69,0002.46,0001.98
2022-09-15 15:40:00,,0827.2,4.99,0.00,30.1,28.0,00.0,38.9,31.9,27.9,0000.0,0003.60,0002.42,0001.97
2022-09-15 15:41:00,,0827.2,5.01,0.00,30.1,28.2,00.0,38.9,31.9,28.1,0000.0,0003.51,0002.38,0001.96
2022-09-15 15:42:00,,0827.2,4.99,0.00,30.1,28.4,00.0,38.9,31.9,28.1,0000.0,0003.59,0002.35,0001.94
2022-09-15 15:43:00,,0827.2,5.00,0.00,30.1,28.5,00.0,38.9,31.9,28.1,0000.0,0003.69,0002.35,0001.93
2022-09-15 15:44:00,,0827.2,4.98,0.00,30.1,28.6,00.0,38.9,32.0,28.0,0000.0,0003.79,0002.36,0001.92
2022-09-15 15:45:00,,0827.3,5.00,0.00,30.2,28.7,00.0,38.9,32.0,27.9,0000.0,0003.66,0002.31,0001.89
2022-09-15 15:46:00,,0827.2,5.00,0.00,30.2,28.8,00.0,38.9,32.0,27.8,0000.0,0003.58,0002.27,0001.87
2022-09-15 15:47:00,,0827.3,4.99,0.00,30.2,28.9,00.0,38.9,32.1,27.9,0000.0,0003.47,0002.23,0001.85
2022-09-15 15:48:00,,0827.3,5.01,0.00,30.2,29.0,00.0,38.9,32.1,27.9,0000.0,0003.41,0002.22,0001.85
2022-09-15 15:49:00,,0827.4,5.00,0.00,30.3,29.0,00.0,38.9,32.1,28.0,0000.0,0003.41,0002.23,0001.86
2022-09-15 15:50:00,,0827.2,4.99,0.00,30.3,29.1,00.0,39.0,32.2,28.0,0000.0,0003.59,0002.26,0001.87
2022-09-15 15:51:00,,0827.2,5.01,0.00,30.3,29.1,00.0,39.0,32.2,28.1,0000.0,0003.67,0002.29,0001.88
2022-09-15 15:52:00,,0827.2,5.00,0.00,30.4,29.2,00.0,39.0,32.2,28.2,0000.0,0003.69,0002.30,0001.87
2022-09-15 15:53:00,,0827.2,4.99,0.00,30.4,29.2,00.0,39.0,32.3,28.4,0000.0,0003.69,0002.34,0001.87
2022-09-15 15:54:00,,0827.2,5.00,0.00,30.4,28.2,00.0,39.0,32.2,28.0,0000.0,0003.63,0002.38,0001.88
2022-09-15 15:55:00,,0827.2,5.01,0.00,30.4,27.3,00.0,39.0,32.2,28.1,0000.0,0003.57,0002.36,0001.89
2022-09-15 15:56:00,,0827.3,5.00,0.00,30.3,27.3,00.0,39.0,32.1,28.1,0000.0,0003.64,0002.38,0001.91
2022-09-15 15:57:00,,0827.2,4.99,0.00,30.3,27.5,00.0,38.9,31.9,28.6,0000.0,0003.62,0002.37,0001.91
2022-09-15 15:58:00,,0827.3,5.01,0.00,30.2,27.8,00.0,38.9,31.9,28.4,0000.0,0003.65,0002.39,0001.93
2022-09-15 15:59:00,,0827.3,4.99,0.00,30.2,28.0,00.0,38.9,31.9,28.4,0000.0,0003.73,0002.41,0001.96
